Location: Caltech
(34.1382°N, 118.1253°W)
Time: 07:47:11
(UTC-07:00)

Cosmos 2333 Rocket - Visible Passes

Search period start: 27 July 2017 00:00
Search period end: 06 August 2017 00:00
Orbit: 840 x 861 km, 70.9° (Epoch: 26 July)

Date Brightness Start Highest point End Pass type
(mag) Time Alt. Az. Time Alt. Az. Time Alt. Az.
27 Jul 2.1 03:52:14 48° SSW 03:53:56 89° ESE 03:59:40 10° NNE visible
28 Jul 2.1 03:40:32 61° SSW 03:41:37 89° ESE 03:47:20 10° NNE visible
28 Jul 4.2 05:24:37 10° WNW 05:26:36 12° NW 05:28:36 10° NNW visible
29 Jul 2.0 03:28:47 75° SSW 03:29:17 89° ESE 03:35:00 10° NNE visible
29 Jul 4.2 05:12:18 10° WNW 05:14:17 12° NW 05:16:17 10° NNW visible
30 Jul 2.1 03:16:59 89° E 03:16:59 89° E 03:22:41 10° NNE visible
30 Jul 4.3 04:59:58 10° WNW 05:01:58 12° NW 05:03:57 10° NNW visible
31 Jul 2.3 03:05:10 75° NNE 03:05:10 75° NNE 03:10:21 10° NNE visible
31 Jul 4.3 04:47:38 10° WNW 04:49:38 12° NW 04:51:38 10° NNW visible
01 Aug 2.5 02:53:18 63° NNE 02:53:18 63° NNE 02:58:01 10° NNE visible
01 Aug 4.3 04:35:19 10° WNW 04:37:19 12° NW 04:39:19 10° NNW visible
02 Aug 2.8 02:41:25 53° NNE 02:41:25 53° NNE 02:45:42 10° NNE visible
02 Aug 4.3 04:23:25 11° WNW 04:24:59 12° NW 04:27:00 10° NNW visible
03 Aug 3.1 02:29:29 46° NNE 02:29:29 46° NNE 02:33:23 10° NNE visible
03 Aug 4.3 04:11:29 11° WNW 04:12:39 12° NW 04:14:41 10° NNW visible
04 Aug 3.4 02:17:32 40° NNE 02:17:32 40° NNE 02:21:03 10° NNE visible
04 Aug 4.3 03:59:32 11° WNW 04:00:20 12° NW 04:02:22 10° NNW visible
05 Aug 3.6 02:05:33 35° NNE 02:05:33 35° NNE 02:08:44 10° NNE visible
05 Aug 4.4 03:47:33 12° WNW 03:48:01 12° NW 03:50:02 10° NNW visible
